Time,TemperatureF,DewpointF,PressureIn,WindDirection,WindDirectionDegrees,WindSpeedMPH,WindSpeedGustMPH,Humidity,HourlyPrecipIn,Conditions,Clouds,dailyrainin,SoftwareType,DateUTC
2013-09-26 00:01:00,49.7,44.4,30.04,North,0,0.0,0.0,82,0.00,,,0.00,WUHU216HW,2013-09-26 04:01:00,
2013-09-26 00:06:00,49.9,44.6,30.04,North,0,0.0,0.0,82,0.00,,,0.00,WUHU216HW,2013-09-26 04:06:00,
2013-09-26 00:11:00,49.7,44.4,30.04,North,0,0.0,0.0,82,0.00,,,0.00,WUHU216HW,2013-09-26 04:11:00,
2013-09-26 00:16:00,49.9,44.6,30.05,North,0,0.0,0.0,82,0.00,,,0.00,WUHU216HW,2013-09-26 04:16:00,
2013-09-26 00:21:00,49.5,44.2,30.04,North,0,0.0,0.0,82,0.00,,,0.00,WUHU216HW,2013-09-26 04:21:00,
2013-09-26 00:26:00,49.5,44.2,30.05,North,0,0.0,0.0,82,0.00,,,0.00,WUHU216HW,2013-09-26 04:26:00,
2013-09-26 00:31:00,49.3,44.0,30.04,North,0,0.0,0.0,82,0.00,,,0.00,WUHU216HW,2013-09-26 04:31:00,
2013-09-26 00:36:00,49.3,44.0,30.05,North,0,0.0,0.0,82,0.00,,,0.00,WUHU216HW,2013-09-26 04:36:00,
2013-09-26 00:41:00,49.3,44.0,30.05,North,0,0.0,0.0,82,0.00,,,0.00,WUHU216HW,2013-09-26 04:41:00,
2013-09-26 00:46:00,49.1,43.8,30.05,North,0,0.0,0.0,82,0.00,,,0.00,WUHU216HW,2013-09-26 04:46:00,
2013-09-26 00:51:00,49.0,44.0,30.05,North,0,0.0,0.0,83,0.00,,,0.00,WUHU216HW,2013-09-26 04:51:00,
2013-09-26 00:56:00,48.8,43.8,30.05,North,0,0.0,0.0,83,0.00,,,0.00,WUHU216HW,2013-09-26 04:56:00,
2013-09-26 01:01:00,48.8,43.8,30.05,North,0,0.0,0.0,83,0.00,,,0.00,WUHU216HW,2013-09-26 05:01:00,
2013-09-26 01:06:00,48.6,43.7,30.05,North,0,0.0,0.0,83,0.00,,,0.00,WUHU216HW,2013-09-26 05:06:00,
2013-09-26 01:11:00,48.6,43.7,30.05,North,0,0.0,0.0,83,0.00,,,0.00,WUHU216HW,2013-09-26 05:11:00,
2013-09-26 01:16:00,48.6,43.7,30.05,North,0,0.0,0.0,83,0.00,,,0.00,WUHU216HW,2013-09-26 05:16:00,
2013-09-26 01:21:00,48.6,43.7,30.05,North,0,0.0,0.0,83,0.00,,,0.00,WUHU216HW,2013-09-26 05:21:00,
2013-09-26 01:26:00,48.8,43.8,30.05,North,0,0.0,0.0,83,0.00,,,0.00,WUHU216HW,2013-09-26 05:26:00,
2013-09-26 01:31:00,48.8,44.1,30.05,North,0,0.0,0.0,84,0.00,,,0.00,WUHU216HW,2013-09-26 05:31:00,
2013-09-26 01:36:00,48.8,43.8,30.05,North,0,0.0,0.0,83,0.00,,,0.00,WUHU216HW,2013-09-26 05:36:00,
2013-09-26 01:41:00,48.8,43.8,30.05,North,0,0.0,0.0,83,0.00,,,0.00,WUHU216HW,2013-09-26 05:41:00,
2013-09-26 01:46:00,48.6,43.7,30.06,North,0,0.0,0.0,83,0.00,,,0.00,WUHU216HW,2013-09-26 05:46:00,
2013-09-26 01:51:00,48.6,43.7,30.06,North,0,0.0,0.0,83,0.00,,,0.00,WUHU216HW,2013-09-26 05:51:00,
2013-09-26 01:56:00,48.6,43.7,30.06,North,0,0.0,0.0,83,0.00,,,0.00,WUHU216HW,2013-09-26 05:56:00,
2013-09-26 02:01:00,48.6,43.7,30.06,North,0,0.0,0.0,83,0.00,,,0.00,WUHU216HW,2013-09-26 06:01:00,
2013-09-26 02:06:00,48.6,43.7,30.06,North,0,0.0,0.0,83,0.00,,,0.00,WUHU216HW,2013-09-26 06:06:00,
2013-09-26 02:11:00,48.4,43.5,30.06,North,0,0.0,0.0,83,0.00,,,0.00,WUHU216HW,2013-09-26 06:11:00,
2013-09-26 02:16:00,48.2,43.3,30.05,North,0,0.0,0.0,83,0.00,,,0.00,WUHU216HW,2013-09-26 06:16:00,
2013-09-26 02:17:00,48.2,43.3,30.06,North,0,0.0,0.0,83,0.00,,,0.00,WUHU216HW,2013-09-26 06:17:00,
2013-09-26 02:23:00,48.2,43.6,30.06,North,0,0.0,0.0,84,0.00,,,0.00,WUHU216HW,2013-09-26 06:23:00,
2013-09-26 02:33:00,47.7,43.1,30.06,North,0,0.0,0.0,84,0.00,,,0.00,WUHU216HW,2013-09-26 06:33:00,
2013-09-26 02:38:00,47.7,43.1,30.06,North,0,0.0,0.0,84,0.00,,,0.00,WUHU216HW,2013-09-26 06:38:00,
2013-09-26 02:43:00,47.7,43.1,30.06,North,0,0.0,0.0,84,0.00,,,0.00,WUHU216HW,2013-09-26 06:43:00,
2013-09-26 02:48:00,47.5,43.2,30.06,North,0,0.0,0.0,85,0.00,,,0.00,WUHU216HW,2013-09-26 06:48:00,
2013-09-26 02:53:00,47.5,43.2,30.06,North,0,0.0,0.0,85,0.00,,,0.00,WUHU216HW,2013-09-26 06:53:00,
2013-09-26 02:58:00,47.3,43.0,30.06,North,0,0.0,0.0,85,0.00,,,0.00,WUHU216HW,2013-09-26 06:58:00,
2013-09-26 03:03:00,47.3,43.0,30.06,North,0,0.0,0.0,85,0.00,,,0.00,WUHU216HW,2013-09-26 07:03:00,
2013-09-26 03:08:00,47.2,42.9,30.06,North,0,0.0,0.0,85,0.00,,,0.00,WUHU216HW,2013-09-26 07:08:00,
2013-09-26 03:13:00,47.2,42.9,30.06,North,0,0.0,0.0,85,0.00,,,0.00,WUHU216HW,2013-09-26 07:13:00,
2013-09-26 03:18:00,47.2,42.9,30.06,North,0,0.0,0.0,85,0.00,,,0.00,WUHU216HW,2013-09-26 07:18:00,
2013-09-26 03:23:00,47.2,42.9,30.06,North,0,0.0,0.0,85,0.00,,,0.00,WUHU216HW,2013-09-26 07:23:00,
2013-09-26 03:28:00,47.0,42.8,30.06,North,0,0.0,0.0,85,0.00,,,0.00,WUHU216HW,2013-09-26 07:28:00,
2013-09-26 03:33:00,47.0,42.8,30.06,North,0,0.0,0.0,85,0.00,,,0.00,WUHU216HW,2013-09-26 07:33:00,
2013-09-26 03:38:00,47.0,42.8,30.06,North,0,0.0,0.0,85,0.00,,,0.00,WUHU216HW,2013-09-26 07:38:00,
2013-09-26 03:43:00,46.8,42.6,30.06,North,0,0.0,0.0,85,0.00,,,0.00,WUHU216HW,2013-09-26 07:43:00,
2013-09-26 03:48:00,46.8,42.6,30.06,North,0,0.0,0.0,85,0.00,,,0.00,WUHU216HW,2013-09-26 07:48:00,
2013-09-26 03:53:00,46.6,42.4,30.06,North,0,0.0,0.0,85,0.00,,,0.00,WUHU216HW,2013-09-26 07:53:00,
2013-09-26 03:58:00,46.6,42.4,30.06,North,0,0.0,0.0,85,0.00,,,0.00,WUHU216HW,2013-09-26 07:58:00,
2013-09-26 04:03:00,46.6,42.4,30.06,North,0,0.0,0.0,85,0.00,,,0.00,WUHU216HW,2013-09-26 08:03:00,
2013-09-26 04:08:00,46.6,42.4,30.06,North,0,0.0,0.0,85,0.00,,,0.00,WUHU216HW,2013-09-26 08:08:00,
2013-09-26 04:13:00,46.6,42.4,30.06,North,0,0.0,0.0,85,0.00,,,0.00,WUHU216HW,2013-09-26 08:13:00,
2013-09-26 04:18:00,46.6,42.4,30.06,North,0,0.0,0.0,85,0.00,,,0.00,WUHU216HW,2013-09-26 08:18:00,
2013-09-26 04:23:00,46.6,42.7,30.06,North,0,0.0,0.0,86,0.00,,,0.00,WUHU216HW,2013-09-26 08:23:00,
2013-09-26 04:28:00,46.6,42.7,30.06,North,0,0.0,0.0,86,0.00,,,0.00,WUHU216HW,2013-09-26 08:28:00,
2013-09-26 04:33:00,46.6,42.7,30.06,North,0,0.0,0.0,86,0.00,,,0.00,WUHU216HW,2013-09-26 08:33:00,
2013-09-26 04:38:00,46.6,42.7,30.06,North,0,0.0,0.0,86,0.00,,,0.00,WUHU216HW,2013-09-26 08:38:00,
2013-09-26 04:43:00,46.6,42.7,30.06,North,0,0.0,0.0,86,0.00,,,0.00,WUHU216HW,2013-09-26 08:43:00,
2013-09-26 04:48:00,46.4,42.5,30.06,North,0,0.0,0.0,86,0.00,,,0.00,WUHU216HW,2013-09-26 08:48:00,
2013-09-26 04:53:00,46.4,42.5,30.06,North,0,0.0,0.0,86,0.00,,,0.00,WUHU216HW,2013-09-26 08:53:00,
2013-09-26 04:58:00,46.4,42.5,30.06,North,0,0.0,0.0,86,0.00,,,0.00,WUHU216HW,2013-09-26 08:58:00,
2013-09-26 05:03:00,46.4,42.5,30.06,North,0,0.0,0.0,86,0.00,,,0.00,WUHU216HW,2013-09-26 09:03:00,
2013-09-26 05:08:00,46.4,42.5,30.06,North,0,0.0,0.0,86,0.00,,,0.00,WUHU216HW,2013-09-26 09:08:00,
2013-09-26 05:13:00,46.3,42.3,30.06,North,0,0.0,0.0,86,0.00,,,0.00,WUHU216HW,2013-09-26 09:13:00,
2013-09-26 05:18:00,46.4,42.5,30.06,North,0,0.0,0.0,86,0.00,,,0.00,WUHU216HW,2013-09-26 09:18:00,
2013-09-26 05:23:00,46.3,42.7,30.06,North,0,0.0,0.0,87,0.00,,,0.00,WUHU216HW,2013-09-26 09:23:00,
2013-09-26 05:28:00,46.3,42.7,30.06,North,0,0.0,0.0,87,0.00,,,0.00,WUHU216HW,2013-09-26 09:28:00,
2013-09-26 05:33:00,46.3,42.7,30.06,North,0,0.0,0.0,87,0.00,,,0.00,WUHU216HW,2013-09-26 09:33:00,
2013-09-26 05:38:00,46.3,42.7,30.07,North,0,0.0,0.0,87,0.00,,,0.00,WUHU216HW,2013-09-26 09:38:00,
2013-09-26 05:43:00,46.3,42.7,30.07,North,0,0.0,0.0,87,0.00,,,0.00,WUHU216HW,2013-09-26 09:43:00,
2013-09-26 05:48:00,46.1,42.5,30.07,North,0,0.0,0.0,87,0.00,,,0.00,WUHU216HW,2013-09-26 09:48:00,
2013-09-26 05:53:00,46.3,42.7,30.07,North,0,0.0,0.0,87,0.00,,,0.00,WUHU216HW,2013-09-26 09:53:00,
2013-09-26 05:58:00,46.1,42.5,30.07,North,0,0.0,0.0,87,0.00,,,0.00,WUHU216HW,2013-09-26 09:58:00,
2013-09-26 06:03:00,46.1,42.5,30.08,North,0,0.0,0.0,87,0.00,,,0.00,WUHU216HW,2013-09-26 10:03:00,
2013-09-26 06:08:00,46.1,42.5,30.08,North,0,0.0,0.0,87,0.00,,,0.00,WUHU216HW,2013-09-26 10:08:00,
2013-09-26 06:13:00,45.9,42.3,30.08,North,0,0.0,0.0,87,0.00,,,0.00,WUHU216HW,2013-09-26 10:13:00,
2013-09-26 06:18:00,45.9,42.3,30.08,North,0,0.0,0.0,87,0.00,,,0.00,WUHU216HW,2013-09-26 10:18:00,
2013-09-26 06:23:00,45.9,42.3,30.08,North,0,0.0,0.0,87,0.00,,,0.00,WUHU216HW,2013-09-26 10:23:00,
2013-09-26 06:28:00,45.9,42.3,30.08,North,0,0.0,0.0,87,0.00,,,0.00,WUHU216HW,2013-09-26 10:28:00,
2013-09-26 06:33:00,45.9,42.3,30.08,North,0,0.0,0.0,87,0.00,,,0.00,WUHU216HW,2013-09-26 10:33:00,
2013-09-26 06:38:00,45.9,42.3,30.08,North,0,0.0,0.0,87,0.00,,,0.00,WUHU216HW,2013-09-26 10:38:00,
2013-09-26 06:43:00,45.9,42.6,30.09,North,0,0.0,0.0,88,0.00,,,0.00,WUHU216HW,2013-09-26 10:43:00,
2013-09-26 06:48:00,46.1,42.8,30.09,North,0,0.0,0.0,88,0.00,,,0.00,WUHU216HW,2013-09-26 10:48:00,
2013-09-26 06:53:00,46.1,42.8,30.09,North,0,0.0,0.0,88,0.00,,,0.00,WUHU216HW,2013-09-26 10:53:00,
2013-09-26 06:58:00,46.1,42.8,30.09,North,0,0.0,0.0,88,0.00,,,0.00,WUHU216HW,2013-09-26 10:58:00,
2013-09-26 07:03:00,46.1,42.8,30.09,North,0,0.0,0.0,88,0.00,,,0.00,WUHU216HW,2013-09-26 11:03:00,
2013-09-26 07:08:00,46.1,42.8,30.09,North,0,0.0,0.0,88,0.00,,,0.00,WUHU216HW,2013-09-26 11:08:00,
2013-09-26 07:13:00,45.9,42.6,30.09,North,0,0.0,0.0,88,0.00,,,0.00,WUHU216HW,2013-09-26 11:13:00,
2013-09-26 07:18:00,45.7,42.4,30.10,North,0,0.0,0.0,88,0.00,,,0.00,WUHU216HW,2013-09-26 11:18:00,
2013-09-26 07:23:00,45.7,42.4,30.10,North,0,0.0,0.0,88,0.00,,,0.00,WUHU216HW,2013-09-26 11:23:00,
2013-09-26 07:28:00,45.7,42.4,30.10,North,0,0.0,0.0,88,0.00,,,0.00,WUHU216HW,2013-09-26 11:28:00,
2013-09-26 07:33:00,45.7,42.4,30.10,North,0,0.0,0.0,88,0.00,,,0.00,WUHU216HW,2013-09-26 11:33:00,
2013-09-26 07:38:00,45.7,42.4,30.10,North,0,0.0,0.0,88,0.00,,,0.00,WUHU216HW,2013-09-26 11:38:00,
2013-09-26 07:43:00,45.7,42.4,30.11,North,0,0.0,0.0,88,0.00,,,0.00,WUHU216HW,2013-09-26 11:43:00,
2013-09-26 07:48:00,45.9,42.6,30.11,North,0,0.0,0.0,88,0.00,,,0.00,WUHU216HW,2013-09-26 11:48:00,
2013-09-26 07:53:00,46.1,42.8,30.11,North,0,0.0,0.0,88,0.00,,,0.00,WUHU216HW,2013-09-26 11:53:00,
2013-09-26 07:58:00,46.3,42.9,30.11,North,0,0.0,0.0,88,0.00,,,0.00,WUHU216HW,2013-09-26 11:58:00,
2013-09-26 08:03:00,46.4,43.1,30.11,North,0,0.0,0.0,88,0.00,,,0.00,WUHU216HW,2013-09-26 12:03:00,
2013-09-26 08:08:00,46.8,43.5,30.11,North,0,0.0,0.0,88,0.00,,,0.00,WUHU216HW,2013-09-26 12:08:00,
2013-09-26 08:13:00,47.0,43.7,30.11,North,0,0.0,0.0,88,0.00,,,0.00,WUHU216HW,2013-09-26 12:13:00,
2013-09-26 08:18:00,47.5,44.2,30.11,North,0,0.0,0.0,88,0.00,,,0.00,WUHU216HW,2013-09-26 12:18:00,
2013-09-26 08:23:00,47.9,44.8,30.11,North,0,0.0,0.0,89,0.00,,,0.00,WUHU216HW,2013-09-26 12:23:00,
2013-09-26 08:28:00,48.4,45.4,30.11,North,0,0.0,0.0,89,0.00,,,0.00,WUHU216HW,2013-09-26 12:28:00,
2013-09-26 08:33:00,49.0,45.9,30.12,North,0,0.0,0.0,89,0.00,,,0.00,WUHU216HW,2013-09-26 12:33:00,
2013-09-26 08:38:00,49.7,46.5,30.12,North,0,0.0,0.0,89,0.00,,,0.00,WUHU216HW,2013-09-26 12:38:00,
2013-09-26 08:43:00,50.2,47.1,30.12,North,0,0.0,0.0,89,0.00,,,0.00,WUHU216HW,2013-09-26 12:43:00,
2013-09-26 08:48:00,50.8,47.6,30.12,North,0,0.0,0.0,89,0.00,,,0.00,WUHU216HW,2013-09-26 12:48:00,
2013-09-26 08:53:00,51.5,48.3,30.12,North,0,0.0,0.0,89,0.00,,,0.00,WUHU216HW,2013-09-26 12:53:00,
2013-09-26 08:58:00,52.2,49.3,30.12,North,0,0.0,0.0,90,0.00,,,0.00,WUHU216HW,2013-09-26 12:58:00,
2013-09-26 09:03:00,53.1,50.0,30.13,North,0,0.0,0.0,89,0.00,,,0.00,WUHU216HW,2013-09-26 13:03:00,
2013-09-26 09:08:00,53.6,50.1,30.12,North,0,0.0,0.0,88,0.00,,,0.00,WUHU216HW,2013-09-26 13:08:00,
2013-09-26 09:13:00,54.4,50.6,30.13,North,0,0.0,0.0,87,0.00,,,0.00,WUHU216HW,2013-09-26 13:13:00,
2013-09-26 09:18:00,54.9,50.8,30.13,North,0,0.0,0.0,86,0.00,,,0.00,WUHU216HW,2013-09-26 13:18:00,
2013-09-26 09:23:00,55.3,50.5,30.13,North,0,0.0,0.0,84,0.00,,,0.00,WUHU216HW,2013-09-26 13:23:00,
2013-09-26 09:28:00,55.8,50.9,30.13,North,0,0.0,0.0,84,0.00,,,0.00,WUHU216HW,2013-09-26 13:28:00,
2013-09-26 09:33:00,56.5,51.4,30.13,North,0,0.0,0.0,83,0.00,,,0.00,WUHU216HW,2013-09-26 13:33:00,
2013-09-26 09:38:00,56.9,51.8,30.13,North,0,0.0,0.0,83,0.00,,,0.00,WUHU216HW,2013-09-26 13:38:00,
2013-09-26 09:43:00,57.6,51.9,30.14,North,0,0.0,0.0,81,0.00,,,0.00,WUHU216HW,2013-09-26 13:43:00,
2013-09-26 09:48:00,58.1,51.7,30.14,North,0,0.0,0.0,79,0.00,,,0.00,WUHU216HW,2013-09-26 13:48:00,
2013-09-26 09:53:00,58.7,52.2,30.14,North,0,0.0,0.0,79,0.00,,,0.00,WUHU216HW,2013-09-26 13:53:00,
2013-09-26 09:58:00,59.0,52.2,30.14,North,0,0.0,0.0,78,0.00,,,0.00,WUHU216HW,2013-09-26 13:58:00,
2013-09-26 10:03:00,59.8,52.9,30.14,North,0,0.0,0.0,78,0.00,,,0.00,WUHU216HW,2013-09-26 14:03:00,
2013-09-26 10:08:00,60.5,52.9,30.14,North,0,0.0,0.0,76,0.00,,,0.00,WUHU216HW,2013-09-26 14:08:00,
2013-09-26 10:13:00,61.0,53.5,30.14,North,0,0.0,0.0,76,0.00,,,0.00,WUHU216HW,2013-09-26 14:13:00,
2013-09-26 10:18:00,61.4,51.2,30.14,North,0,0.0,0.0,69,0.00,,,0.00,WUHU216HW,2013-09-26 14:18:00,
2013-09-26 10:23:00,61.6,52.8,30.14,North,0,0.0,0.0,73,0.00,,,0.00,WUHU216HW,2013-09-26 14:23:00,
2013-09-26 10:28:00,61.9,53.2,30.14,North,0,0.0,0.0,73,0.00,,,0.00,WUHU216HW,2013-09-26 14:28:00,
2013-09-26 10:33:00,62.3,53.5,30.14,North,0,0.0,0.0,73,0.00,,,0.00,WUHU216HW,2013-09-26 14:33:00,
2013-09-26 10:38:00,63.0,53.5,30.14,North,0,0.0,0.0,71,0.00,,,0.00,WUHU216HW,2013-09-26 14:38:00,
2013-09-26 10:43:00,63.4,53.8,30.14,North,0,0.0,0.0,71,0.00,,,0.00,WUHU216HW,2013-09-26 14:43:00,
2013-09-26 10:48:00,63.7,53.0,30.14,North,0,0.0,0.0,68,0.00,,,0.00,WUHU216HW,2013-09-26 14:48:00,
2013-09-26 10:53:00,64.1,53.3,30.15,North,0,0.0,0.0,68,0.00,,,0.00,WUHU216HW,2013-09-26 14:53:00,
2013-09-26 10:58:00,64.4,51.9,30.14,North,0,0.0,0.0,64,0.00,,,0.00,WUHU216HW,2013-09-26 14:58:00,
2013-09-26 11:03:00,64.6,50.9,30.14,North,0,0.0,0.0,61,0.00,,,0.00,WUHU216HW,2013-09-26 15:03:00,
2013-09-26 11:08:00,64.8,46.2,30.14,North,0,0.0,0.0,51,0.00,,,0.00,WUHU216HW,2013-09-26 15:08:00,
2013-09-26 11:13:00,65.0,51.2,30.15,North,0,0.0,0.0,61,0.00,,,0.00,WUHU216HW,2013-09-26 15:13:00,
2013-09-26 11:18:00,65.3,50.1,30.15,North,0,0.0,0.0,58,0.00,,,0.00,WUHU216HW,2013-09-26 15:18:00,
2013-09-26 11:23:00,65.3,51.6,30.15,North,0,0.0,0.0,61,0.00,,,0.00,WUHU216HW,2013-09-26 15:23:00,
2013-09-26 11:28:00,65.5,51.8,30.15,North,0,0.0,0.0,61,0.00,,,0.00,WUHU216HW,2013-09-26 15:28:00,
2013-09-26 11:33:00,65.9,53.4,30.15,North,0,0.0,0.0,64,0.00,,,0.00,WUHU216HW,2013-09-26 15:33:00,
2013-09-26 11:38:00,65.9,50.2,30.15,North,0,0.0,0.0,57,0.00,,,0.00,WUHU216HW,2013-09-26 15:38:00,
2013-09-26 11:43:00,65.9,51.7,30.14,North,0,0.0,0.0,60,0.00,,,0.00,WUHU216HW,2013-09-26 15:43:00,
2013-09-26 11:48:00,66.2,52.0,30.14,North,0,0.0,0.0,60,0.00,,,0.00,WUHU216HW,2013-09-26 15:48:00,
2013-09-26 11:53:00,66.4,52.2,30.14,North,0,0.0,0.0,60,0.00,,,0.00,WUHU216HW,2013-09-26 15:53:00,
2013-09-26 11:58:00,66.4,52.6,30.14,North,0,0.0,0.0,61,0.00,,,0.00,WUHU216HW,2013-09-26 15:58:00,
2013-09-26 12:03:00,66.8,52.9,30.14,North,0,0.0,0.0,61,0.00,,,0.00,WUHU216HW,2013-09-26 16:03:00,
2013-09-26 12:04:00,66.8,52.0,30.14,North,0,0.0,0.0,59,0.00,,,0.00,WUHU216HW,2013-09-26 16:04:00,
2013-09-26 12:10:00,66.6,54.0,30.14,North,0,0.0,0.0,64,0.00,,,0.00,WUHU216HW,2013-09-26 16:10:00,
2013-09-26 12:21:00,67.1,54.1,30.14,North,0,0.0,0.0,63,0.00,,,0.00,WUHU216HW,2013-09-26 16:21:00,
2013-09-26 12:26:00,67.5,54.5,30.14,North,0,0.0,0.0,63,0.00,,,0.00,WUHU216HW,2013-09-26 16:26:00,
2013-09-26 12:31:00,67.7,53.7,30.14,North,0,0.0,0.0,61,0.00,,,0.00,WUHU216HW,2013-09-26 16:31:00,
2013-09-26 12:36:00,68.0,55.4,30.14,North,0,0.0,0.0,64,0.00,,,0.00,WUHU216HW,2013-09-26 16:36:00,
2013-09-26 12:41:00,68.2,54.3,30.14,North,0,0.0,0.0,61,0.00,,,0.00,WUHU216HW,2013-09-26 16:41:00,
2013-09-26 12:46:00,68.2,53.8,30.14,North,0,0.0,0.0,60,0.00,,,0.00,WUHU216HW,2013-09-26 16:46:00,
2013-09-26 12:51:00,68.4,54.5,30.14,North,0,0.0,0.0,61,0.00,,,0.00,WUHU216HW,2013-09-26 16:51:00,
2013-09-26 12:56:00,68.8,55.2,30.14,North,0,0.0,0.0,62,0.00,,,0.00,WUHU216HW,2013-09-26 16:56:00,
2013-09-26 13:01:00,68.8,54.8,30.14,North,0,0.0,0.0,61,0.00,,,0.00,WUHU216HW,2013-09-26 17:01:00,
2013-09-26 13:06:00,68.6,53.7,30.14,North,0,0.0,0.0,59,0.00,,,0.00,WUHU216HW,2013-09-26 17:06:00,
2013-09-26 13:11:00,68.8,55.6,30.14,North,0,0.0,0.0,63,0.00,,,0.00,WUHU216HW,2013-09-26 17:11:00,
2013-09-26 13:16:00,69.1,55.5,30.14,North,0,0.0,0.0,62,0.00,,,0.00,WUHU216HW,2013-09-26 17:16:00,
2013-09-26 13:21:00,69.1,54.2,30.14,North,0,0.0,0.0,59,0.00,,,0.00,WUHU216HW,2013-09-26 17:21:00,
2013-09-26 13:26:00,69.3,55.7,30.14,North,0,0.0,0.0,62,0.00,,,0.00,WUHU216HW,2013-09-26 17:26:00,
2013-09-26 13:31:00,70.0,55.6,30.14,North,0,0.0,0.0,60,0.00,,,0.00,WUHU216HW,2013-09-26 17:31:00,
2013-09-26 13:36:00,70.4,56.8,30.14,North,0,0.0,0.0,62,0.00,,,0.00,WUHU216HW,2013-09-26 17:36:00,
2013-09-26 13:41:00,69.8,55.4,30.14,North,0,0.0,0.0,60,0.00,,,0.00,WUHU216HW,2013-09-26 17:41:00,
2013-09-26 13:46:00,69.5,55.5,30.13,North,0,0.0,0.0,61,0.00,,,0.00,WUHU216HW,2013-09-26 17:46:00,
2013-09-26 13:51:00,69.7,55.7,30.13,North,0,0.0,0.0,61,0.00,,,0.00,WUHU216HW,2013-09-26 17:51:00,
2013-09-26 13:56:00,69.7,54.3,30.13,North,0,0.0,0.0,58,0.00,,,0.00,WUHU216HW,2013-09-26 17:56:00,
2013-09-26 14:01:00,69.3,56.2,30.13,North,0,0.0,0.0,63,0.00,,,0.00,WUHU216HW,2013-09-26 18:01:00,
2013-09-26 14:06:00,69.1,55.2,30.13,North,0,0.0,0.0,61,0.00,,,0.00,WUHU216HW,2013-09-26 18:06:00,
2013-09-26 14:11:00,68.4,54.9,30.13,North,0,0.0,0.0,62,0.00,,,0.00,WUHU216HW,2013-09-26 18:11:00,
2013-09-26 14:16:00,68.8,54.4,30.13,North,0,0.0,0.0,60,0.00,,,0.00,WUHU216HW,2013-09-26 18:16:00,
2013-09-26 14:21:00,69.8,56.3,30.13,North,0,0.0,0.0,62,0.00,,,0.00,WUHU216HW,2013-09-26 18:21:00,
2013-09-26 14:26:00,70.9,55.9,30.13,North,0,0.0,0.0,59,0.00,,,0.00,WUHU216HW,2013-09-26 18:26:00,
2013-09-26 14:31:00,70.9,55.9,30.13,North,0,0.0,0.0,59,0.00,,,0.00,WUHU216HW,2013-09-26 18:31:00,
2013-09-26 14:36:00,69.8,54.9,30.13,North,0,0.0,0.0,59,0.00,,,0.00,WUHU216HW,2013-09-26 18:36:00,
2013-09-26 14:41:00,69.8,56.3,30.13,North,0,0.0,0.0,62,0.00,,,0.00,WUHU216HW,2013-09-26 18:41:00,
2013-09-26 14:46:00,70.4,55.9,30.13,North,0,0.0,0.0,60,0.00,,,0.00,WUHU216HW,2013-09-26 18:46:00,
2013-09-26 14:51:00,70.7,56.3,30.13,North,0,0.0,0.0,60,0.00,,,0.00,WUHU216HW,2013-09-26 18:51:00,
2013-09-26 14:56:00,70.4,54.5,30.13,North,0,0.0,0.0,57,0.00,,,0.00,WUHU216HW,2013-09-26 18:56:00,
2013-09-26 15:01:00,70.6,56.1,30.13,North,0,0.0,0.0,60,0.00,,,0.00,WUHU216HW,2013-09-26 19:01:00,
2013-09-26 15:06:00,70.9,55.9,30.13,North,0,0.0,0.0,59,0.00,,,0.00,WUHU216HW,2013-09-26 19:06:00,
2013-09-26 15:11:00,70.0,55.6,30.13,North,0,0.0,0.0,60,0.00,,,0.00,WUHU216HW,2013-09-26 19:11:00,
2013-09-26 15:16:00,68.9,55.0,30.13,North,0,0.0,0.0,61,0.00,,,0.00,WUHU216HW,2013-09-26 19:16:00,
2013-09-26 15:21:00,68.9,56.7,30.13,North,0,0.0,0.0,65,0.00,,,0.00,WUHU216HW,2013-09-26 19:21:00,
2013-09-26 15:26:00,69.8,56.3,30.13,North,0,0.0,0.0,62,0.00,,,0.00,WUHU216HW,2013-09-26 19:26:00,
2013-09-26 15:31:00,70.4,56.8,30.13,North,0,0.0,0.0,62,0.00,,,0.00,WUHU216HW,2013-09-26 19:31:00,
2013-09-26 15:36:00,70.2,56.2,30.13,North,0,0.0,0.0,61,0.00,,,0.00,WUHU216HW,2013-09-26 19:36:00,
2013-09-26 15:41:00,70.0,56.0,30.13,North,0,0.0,0.0,61,0.00,,,0.00,WUHU216HW,2013-09-26 19:41:00,
2013-09-26 15:46:00,70.2,55.8,30.13,North,0,0.0,0.0,60,0.00,,,0.00,WUHU216HW,2013-09-26 19:46:00,
2013-09-26 15:51:00,69.5,55.1,30.13,North,0,0.0,0.0,60,0.00,,,0.00,WUHU216HW,2013-09-26 19:51:00,
2013-09-26 15:57:00,69.7,55.7,30.13,North,0,0.0,0.0,61,0.00,,,0.00,WUHU216HW,2013-09-26 19:57:00,
2013-09-26 16:02:00,70.0,56.4,30.13,North,0,0.0,0.0,62,0.00,,,0.00,WUHU216HW,2013-09-26 20:02:00,
2013-09-26 16:07:00,70.2,56.6,30.13,North,0,0.0,0.0,62,0.00,,,0.00,WUHU216HW,2013-09-26 20:07:00,
2013-09-26 16:12:00,70.2,55.8,30.13,North,0,0.0,0.0,60,0.00,,,0.00,WUHU216HW,2013-09-26 20:12:00,
2013-09-26 16:17:00,70.0,54.1,30.13,North,0,0.0,0.0,57,0.00,,,0.00,WUHU216HW,2013-09-26 20:17:00,
2013-09-26 16:22:00,69.7,53.7,30.14,North,0,0.0,0.0,57,0.00,,,0.00,WUHU216HW,2013-09-26 20:22:00,
2013-09-26 16:27:00,69.3,53.4,30.14,North,0,0.0,0.0,57,0.00,,,0.00,WUHU216HW,2013-09-26 20:27:00,
2013-09-26 16:32:00,69.7,54.7,30.14,North,0,0.0,0.0,59,0.00,,,0.00,WUHU216HW,2013-09-26 20:32:00,
2013-09-26 16:37:00,69.5,53.1,30.14,North,0,0.0,0.0,56,0.00,,,0.00,WUHU216HW,2013-09-26 20:37:00,
2013-09-26 16:42:00,69.5,53.6,30.14,North,0,0.0,0.0,57,0.00,,,0.00,WUHU216HW,2013-09-26 20:42:00,
2013-09-26 16:47:00,69.5,54.1,30.14,North,0,0.0,0.0,58,0.00,,,0.00,WUHU216HW,2013-09-26 20:47:00,
2013-09-26 16:52:00,69.3,52.9,30.14,North,0,0.0,0.0,56,0.00,,,0.00,WUHU216HW,2013-09-26 20:52:00,
2013-09-26 16:57:00,69.1,52.8,30.14,North,0,0.0,0.0,56,0.00,,,0.00,WUHU216HW,2013-09-26 20:57:00,
2013-09-26 17:02:00,68.9,53.0,30.14,North,0,0.0,0.0,57,0.00,,,0.00,WUHU216HW,2013-09-26 21:02:00,
2013-09-26 17:07:00,68.9,53.0,30.14,North,0,0.0,0.0,57,0.00,,,0.00,WUHU216HW,2013-09-26 21:07:00,
2013-09-26 17:12:00,68.9,53.6,30.14,North,0,0.0,0.0,58,0.00,,,0.00,WUHU216HW,2013-09-26 21:12:00,
2013-09-26 17:17:00,68.9,53.6,30.14,North,0,0.0,0.0,58,0.00,,,0.00,WUHU216HW,2013-09-26 21:17:00,
2013-09-26 19:00:00,63.4,52.2,30.16,North,0,0.0,0.0,67,0.00,,,0.00,WUHU216HW,2013-09-26 23:00:00,
2013-09-26 19:05:00,63.0,51.8,30.16,North,0,0.0,0.0,67,0.00,,,0.00,WUHU216HW,2013-09-26 23:05:00,
2013-09-26 19:14:00,62.5,51.8,30.16,North,0,0.0,0.0,68,0.00,,,0.00,WUHU216HW,2013-09-26 23:14:00,
2013-09-26 19:19:00,62.1,51.8,30.16,North,0,0.0,0.0,69,0.00,,,0.00,WUHU216HW,2013-09-26 23:19:00,
2013-09-26 19:24:00,61.7,51.5,30.16,North,0,0.0,0.0,69,0.00,,,0.00,WUHU216HW,2013-09-26 23:24:00,
2013-09-26 19:29:00,61.4,51.2,30.16,North,0,0.0,0.0,69,0.00,,,0.00,WUHU216HW,2013-09-26 23:29:00,
2013-09-26 19:34:00,61.0,50.9,30.16,North,0,0.0,0.0,69,0.00,,,0.00,WUHU216HW,2013-09-26 23:34:00,
2013-09-26 19:39:00,60.5,50.8,30.16,North,0,0.0,0.0,70,0.00,,,0.00,WUHU216HW,2013-09-26 23:39:00,
2013-09-26 19:44:00,60.3,50.9,30.16,North,0,0.0,0.0,71,0.00,,,0.00,WUHU216HW,2013-09-26 23:44:00,
2013-09-26 19:49:00,59.9,50.6,30.16,North,0,0.0,0.0,71,0.00,,,0.00,WUHU216HW,2013-09-26 23:49:00,
2013-09-26 19:54:00,59.4,50.4,30.16,North,0,0.0,0.0,72,0.00,,,0.00,WUHU216HW,2013-09-26 23:54:00,
2013-09-26 19:59:00,59.0,50.4,30.16,North,0,0.0,0.0,73,0.00,,,0.00,WUHU216HW,2013-09-26 23:59:00,
2013-09-26 20:04:00,58.7,50.0,30.16,North,0,0.0,0.0,73,0.00,,,0.00,WUHU216HW,2013-09-27 00:04:00,
2013-09-26 20:10:00,58.5,49.9,30.17,North,0,0.0,0.0,73,0.00,,,0.00,WUHU216HW,2013-09-27 00:10:00,
2013-09-26 20:15:00,58.3,50.0,30.17,North,0,0.0,0.0,74,0.00,,,0.00,WUHU216HW,2013-09-27 00:15:00,
2013-09-26 20:20:00,58.0,50.0,30.17,North,0,0.0,0.0,75,0.00,,,0.00,WUHU216HW,2013-09-27 00:20:00,
2013-09-26 20:25:00,57.8,49.9,30.17,North,0,0.0,0.0,75,0.00,,,0.00,WUHU216HW,2013-09-27 00:25:00,
2013-09-26 20:30:00,57.6,50.0,30.17,North,0,0.0,0.0,76,0.00,,,0.00,WUHU216HW,2013-09-27 00:30:00,
2013-09-26 20:35:00,57.2,49.7,30.17,North,0,0.0,0.0,76,0.00,,,0.00,WUHU216HW,2013-09-27 00:35:00,
2013-09-26 20:40:00,57.2,49.7,30.17,North,0,0.0,0.0,76,0.00,,,0.00,WUHU216HW,2013-09-27 00:40:00,
2013-09-26 20:45:00,57.2,50.0,30.17,North,0,0.0,0.0,77,0.00,,,0.00,WUHU216HW,2013-09-27 00:45:00,
2013-09-26 20:50:00,57.2,50.0,30.17,North,0,0.0,0.0,77,0.00,,,0.00,WUHU216HW,2013-09-27 00:50:00,
2013-09-26 20:55:00,57.2,50.0,30.17,North,0,0.0,0.0,77,0.00,,,0.00,WUHU216HW,2013-09-27 00:55:00,
2013-09-26 21:00:00,56.9,50.0,30.17,North,0,0.0,0.0,78,0.00,,,0.00,WUHU216HW,2013-09-27 01:00:00,
2013-09-26 21:05:00,56.5,49.7,30.17,North,0,0.0,0.0,78,0.00,,,0.00,WUHU216HW,2013-09-27 01:05:00,
2013-09-26 21:10:00,56.3,49.5,30.17,North,0,0.0,0.0,78,0.00,,,0.00,WUHU216HW,2013-09-27 01:10:00,
2013-09-26 21:15:00,56.3,49.9,30.18,North,0,0.0,0.0,79,0.00,,,0.00,WUHU216HW,2013-09-27 01:15:00,
2013-09-26 21:20:00,56.2,49.7,30.18,North,0,0.0,0.0,79,0.00,,,0.00,WUHU216HW,2013-09-27 01:20:00,
2013-09-26 21:25:00,56.0,49.5,30.18,North,0,0.0,0.0,79,0.00,,,0.00,WUHU216HW,2013-09-27 01:25:00,
2013-09-26 21:30:00,55.8,49.7,30.18,North,0,0.0,0.0,80,0.00,,,0.00,WUHU216HW,2013-09-27 01:30:00,
2013-09-26 21:35:00,55.6,49.5,30.18,North,0,0.0,0.0,80,0.00,,,0.00,WUHU216HW,2013-09-27 01:35:00,
2013-09-26 21:40:00,55.4,49.0,30.18,North,0,0.0,0.0,79,0.00,,,0.00,WUHU216HW,2013-09-27 01:40:00,
2013-09-26 21:45:00,55.4,49.3,30.18,North,0,0.0,0.0,80,0.00,,,0.00,WUHU216HW,2013-09-27 01:45:00,
2013-09-26 21:50:00,55.3,49.1,30.18,North,0,0.0,0.0,80,0.00,,,0.00,WUHU216HW,2013-09-27 01:50:00,
2013-09-26 21:55:00,55.1,49.0,30.18,North,0,0.0,0.0,80,0.00,,,0.00,WUHU216HW,2013-09-27 01:55:00,
2013-09-26 22:00:00,55.1,49.0,30.18,North,0,0.0,0.0,80,0.00,,,0.00,WUHU216HW,2013-09-27 02:00:00,
2013-09-26 22:05:00,55.1,49.0,30.18,North,0,0.0,0.0,80,0.00,,,0.00,WUHU216HW,2013-09-27 02:05:00,
2013-09-26 22:10:00,54.9,49.1,30.18,North,0,0.0,0.0,81,0.00,,,0.00,WUHU216HW,2013-09-27 02:10:00,
2013-09-26 22:15:00,54.7,49.0,30.18,North,0,0.0,0.0,81,0.00,,,0.00,WUHU216HW,2013-09-27 02:15:00,
2013-09-26 22:20:00,54.7,49.3,30.19,North,0,0.0,0.0,82,0.00,,,0.00,WUHU216HW,2013-09-27 02:20:00,
2013-09-26 22:25:00,54.5,49.1,30.19,North,0,0.0,0.0,82,0.00,,,0.00,WUHU216HW,2013-09-27 02:25:00,
2013-09-26 22:30:00,54.5,49.1,30.19,North,0,0.0,0.0,82,0.00,,,0.00,WUHU216HW,2013-09-27 02:30:00,
2013-09-26 22:35:00,54.4,49.0,30.19,North,0,0.0,0.0,82,0.00,,,0.00,WUHU216HW,2013-09-27 02:35:00,
2013-09-26 22:40:00,54.4,49.0,30.19,North,0,0.0,0.0,82,0.00,,,0.00,WUHU216HW,2013-09-27 02:40:00,
2013-09-26 22:45:00,54.4,49.0,30.19,North,0,0.0,0.0,82,0.00,,,0.00,WUHU216HW,2013-09-27 02:45:00,
2013-09-26 22:50:00,54.4,49.0,30.19,North,0,0.0,0.0,82,0.00,,,0.00,WUHU216HW,2013-09-27 02:50:00,
2013-09-26 22:55:00,54.4,49.0,30.19,North,0,0.0,0.0,82,0.00,,,0.00,WUHU216HW,2013-09-27 02:55:00,
2013-09-26 23:00:00,54.4,49.0,30.19,North,0,0.0,0.0,82,0.00,,,0.00,WUHU216HW,2013-09-27 03:00:00,
2013-09-26 23:05:00,54.4,49.3,30.19,North,0,0.0,0.0,83,0.00,,,0.00,WUHU216HW,2013-09-27 03:05:00,
2013-09-26 23:10:00,54.4,49.3,30.19,North,0,0.0,0.0,83,0.00,,,0.00,WUHU216HW,2013-09-27 03:10:00,
2013-09-26 23:15:00,54.2,49.2,30.19,North,0,0.0,0.0,83,0.00,,,0.00,WUHU216HW,2013-09-27 03:15:00,
2013-09-26 23:20:00,54.2,49.2,30.20,North,0,0.0,0.0,83,0.00,,,0.00,WUHU216HW,2013-09-27 03:20:00,
2013-09-26 23:25:00,54.0,49.0,30.20,North,0,0.0,0.0,83,0.00,,,0.00,WUHU216HW,2013-09-27 03:25:00,
2013-09-26 23:30:00,54.0,49.0,30.19,North,0,0.0,0.0,83,0.00,,,0.00,WUHU216HW,2013-09-27 03:30:00,
2013-09-26 23:35:00,54.0,49.2,30.20,North,0,0.0,0.0,84,0.00,,,0.00,WUHU216HW,2013-09-27 03:35:00,
2013-09-26 23:40:00,54.0,49.2,30.20,North,0,0.0,0.0,84,0.00,,,0.00,WUHU216HW,2013-09-27 03:40:00,
2013-09-26 23:45:00,53.8,49.1,30.20,North,0,0.0,0.0,84,0.00,,,0.00,WUHU216HW,2013-09-27 03:45:00,
2013-09-26 23:50:00,53.8,49.1,30.20,North,0,0.0,0.0,84,0.00,,,0.00,WUHU216HW,2013-09-27 03:50:00,
2013-09-26 23:55:00,53.8,49.1,30.20,North,0,0.0,0.0,84,0.00,,,0.00,WUHU216HW,2013-09-27 03:55:00,